Home   Weather   Nadiad   Past weeks

Flag for India Past Weather in Nadiad, Gujarat, India — Yesterday and Last 2 Weeks

Now
88 °F

Clear.


Feels Like: 88 °F
Forecast: 66 / 91 °F
Wind: 3 mph from East

Location: Ahmadabad Airport

Current Time: Jan 24, 2017 at 1:00:49 pm

Latest Report: Jan 24, 2017 at 12:00 pm


Visibility: 3 mi

Pressure: 30.04 "Hg

Humidity: 40%

Dew Point: 61 °F

Location of NadiadLocation

Past Weather in Nadiad — Graph

°F

Nadiad Temperature Yesterday

Maximum temperature yesterday: 91 °F (at 3:30 pm)
Minimum temperature yesterday: 64 °F (at 5:30 am)
Average temperature yesterday: 76 °F

High & Low Weather Summary for the Past Weeks

 TemperatureHumidityPressure
High91 °F (Jan 23, 3:30 pm)88% (Jan 24, 6:30 am)30.15 "Hg (Jan 24, 6:30 am)
Low52 °F (Jan 11, 7:00 am)21% (Jan 13, 3:00 pm)29.86 "Hg (Jan 9, 3:30 pm)
Average68 °F51%30.02 "Hg
* Reported Jan 9 11:30 am — Jan 24 11:30 am, Nadiad, Weather by CustomWeather, © 2017

Note: Actual official high and low records may vary slightly from our data, if they occured in-between our weather recording intervals... More about our weather records

Advertising

Nadiad Weather History for the Previous 24 Hours

Scroll right to see more
 ConditionsComfort  
Time TempWeatherWind HumidityBarometerVisibility
11:30 am
Tue, Jan 24
86 °FClear.3 mph43%30.04 "Hg3 mi
11:00 am82 °FClear.3 mph45%30.07 "Hg2 mi
10:30 am81 °FClear.3 mph48%30.07 "Hg2 mi
10:00 am79 °FClear.3 mph51%30.07 "Hg2 mi
9:30 am75 °FHaze.3 mph54%30.07 "Hg2 mi
9:00 am72 °FHaze.3 mph61%30.04 "Hg1 mi
8:00 am66 °FHaze.No wind73%30.01 "Hg1 mi
7:30 am64 °FHaze.No wind78%30.01 "Hg1 mi
7:00 am66 °FHaze.No wind73%29.98 "Hg2 mi
6:30 am63 °FHaze.No wind88%29.98 "Hg2 mi
6:00 am63 °FHaze.No wind83%29.98 "Hg2 mi
5:30 am64 °FHaze.No wind83%29.98 "Hg2 mi
5:00 am66 °FHaze.No wind78%29.98 "Hg2 mi
4:30 am66 °FHaze.No wind83%29.95 "Hg2 mi
4:00 am68 °FHaze.No wind69%29.98 "Hg2 mi
3:30 am70 °FHaze.No wind64%29.98 "Hg2 mi
3:00 am70 °FHaze.No wind69%29.98 "Hg2 mi
2:30 am70 °FHaze.No wind69%29.98 "Hg2 mi
2:00 am70 °FHaze.No wind69%29.98 "Hg2 mi
1:30 am70 °FHaze.No wind69%29.98 "Hg2 mi
1:00 am72 °FHaze.No wind69%29.98 "Hg2 mi
12:30 am72 °FHaze.No wind65%30.01 "Hg2 mi
11:30 pm
Mon, Jan 23
72 °FHaze.No wind65%30.01 "Hg2 mi
11:00 pm73 °FHaze.No wind65%30.01 "Hg2 mi
10:30 pm75 °FHaze.No wind61%30.01 "Hg2 mi
10:00 pm73 °FHaze.No wind65%30.01 "Hg2 mi
9:30 pm75 °FClear.No wind65%30.01 "Hg2 mi
9:00 pm75 °FClear.No wind65%30.01 "Hg2 mi
8:30 pm77 °FClear.No wind57%30.01 "Hg2 mi
7:30 pm81 °FClear.No wind51%29.98 "Hg2 mi
7:00 pm82 °FClear.No wind48%29.98 "Hg2 mi
6:30 pm86 °FClear.No wind40%29.95 "Hg2 mi
6:00 pm86 °FClear.No wind40%29.95 "Hg3 mi
5:30 pm90 °FClear.No wind33%29.95 "Hg3 mi
5:00 pm90 °FClear.No wind33%29.95 "Hg3 mi
4:30 pm91 °FClear.No wind28%29.95 "Hg3 mi
4:00 pm91 °FClear.No wind30%29.95 "Hg3 mi
3:30 pm91 °FClear.No wind30%29.95 "Hg3 mi
3:00 pm90 °FClear.No wind31%29.98 "Hg3 mi
2:30 pm90 °FClear.3 mph33%29.98 "Hg3 mi
2:00 pm90 °FClear.No wind33%30.01 "Hg3 mi
1:00 pm86 °FClear.3 mph40%30.04 "Hg3 mi
Weather by CustomWeather, © 2017

See weather overviewHow to use our weather pages